Date String (YYYY-MM-DD hh:mm:ss) UTC,Instrument flags,absolute air pressure of the measurement (hPa),sample flow rate (lpm),inlet stack bypass flow (lpm),air temperature of the measurement (°C),ambient temperature measured by the external sensor (°C),aerosol sample conditioner tube jacket temperature (°C),OPC LED temperature (°C),internal box temperature (°C),relative humidity of the measurement (%),span deviation,mass concentration of particles derived from Lorenz-Mie calculation of OPC scattering (μg/m³),mass concentration of particles derived from Lorenz-Mie calculation of OPC scattering (μg/m³),mass concentration of particles derived from Lorenz-Mie calculation of OPC scattering (μg/m³)
DateTimeUTC,F1_M11,P_M11,Q1_M11,Q2_M11,T1_M11,T2_M11,T3_M11,T4_M11,T5_M11,U1_M11,ZSPAN_M11,X0_M11,X2_M11,X1_M11
2023-12-02 22:00:00,SystemResetWarning,0821.0,4.99,000.00,019.1,018.3,000.0,027.4,020.2,9.2,0000.0,0003.86,0000.98,0000.56
2023-12-02 22:01:00,SystemResetWarning,0820.9,5.01,000.00,019.0,018.2,000.0,027.4,020.2,9.2,0000.0,0003.87,0001.01,0000.55
2023-12-02 22:02:00,SystemResetWarning,0820.9,5.01,000.00,019.0,018.2,000.0,027.4,020.2,9.2,0000.0,0004.10,0001.01,0000.54
2023-12-02 22:03:00,SystemResetWarning,0821.0,4.99,000.00,019.1,018.2,000.0,027.4,020.2,9.3,0000.0,0004.22,0001.02,0000.54
2023-12-02 22:04:00,SystemResetWarning,0820.9,4.99,000.00,019.1,018.3,000.0,027.4,020.2,9.3,0000.0,0004.36,0001.04,0000.54
2023-12-02 22:05:00,SystemResetWarning,0820.7,5.01,000.00,019.1,018.3,000.0,027.4,020.2,9.0,0000.0,0004.91,0001.03,0000.55
2023-12-02 22:06:00,SystemResetWarning,0820.7,5.00,000.00,019.1,018.3,000.0,027.4,020.2,9.1,0000.0,0005.14,0001.06,0000.55
2023-12-02 22:07:00,SystemResetWarning,0820.6,5.00,000.00,019.1,018.3,000.0,027.4,020.2,9.3,0000.0,0005.53,0001.09,0000.55
2023-12-02 22:08:00,SystemResetWarning,0820.7,5.01,000.00,019.0,018.3,000.0,027.4,020.1,9.2,0000.0,0005.63,0001.16,0000.56
2023-12-02 22:09:00,SystemResetWarning,0820.7,5.00,000.00,019.0,018.2,000.0,027.4,020.1,9.1,0000.0,0005.63,0001.18,0000.56
2023-12-02 22:10:00,SystemResetWarning,0820.6,5.00,000.00,019.0,018.2,000.0,027.4,020.1,9.1,0000.0,0006.20,0001.24,0000.56
2023-12-02 22:11:00,SystemResetWarning,0820.8,5.00,000.00,019.0,018.2,000.0,027.4,020.1,8.8,0000.0,0006.54,0001.26,0000.56
2023-12-02 22:12:00,SystemResetWarning,0820.8,5.00,000.00,019.0,018.2,000.0,027.4,020.1,9.1,0000.0,0006.28,0001.20,0000.56
2023-12-02 22:13:00,SystemResetWarning,0820.8,5.00,000.00,019.0,018.2,000.0,027.4,020.1,9.0,0000.0,0006.15,0001.17,0000.56
2023-12-02 22:14:00,SystemResetWarning,0820.8,5.00,000.00,019.0,018.2,000.0,027.4,020.1,9.2,0000.0,0006.35,0001.21,0000.55
2023-12-02 22:15:00,SystemResetWarning,0820.7,5.00,000.00,019.0,018.2,000.0,027.4,020.1,9.3,0000.0,0006.56,0001.24,0000.55
2023-12-02 22:16:00,SystemResetWarning,0820.8,4.99,000.00,019.0,018.2,000.0,027.4,020.1,8.9,0000.0,0006.72,0001.26,0000.54
2023-12-02 22:17:00,SystemResetWarning,0820.7,4.99,000.00,019.0,018.2,000.0,027.4,020.1,8.9,0000.0,0005.73,0001.25,0000.54
2023-12-02 22:18:00,SystemResetWarning,0820.9,5.00,000.00,019.0,018.2,000.0,027.4,020.1,9.2,0000.0,0005.23,0001.23,0000.54
2023-12-02 22:19:00,SystemResetWarning,0820.8,5.00,000.00,019.0,018.2,000.0,027.4,020.1,9.0,0000.0,0004.82,0001.17,0000.53
2023-12-02 22:20:00,SystemResetWarning,0820.9,5.01,000.00,019.0,018.2,000.0,027.4,020.1,8.9,0000.0,0004.81,0001.15,0000.53
2023-12-02 22:21:00,SystemResetWarning,0820.8,5.00,000.00,019.0,018.2,000.0,027.4,020.1,9.2,0000.0,0004.70,0001.10,0000.53
2023-12-02 22:22:00,SystemResetWarning,0820.8,5.00,000.00,019.0,018.2,000.0,027.4,020.2,9.1,0000.0,0003.51,0001.04,0000.53
2023-12-02 22:23:00,SystemResetWarning,0820.7,4.99,000.00,019.0,018.2,000.0,027.4,020.1,9.2,0000.0,0003.46,0001.04,0000.53
2023-12-02 22:24:00,SystemResetWarning,0820.7,4.99,000.00,019.0,018.2,000.0,027.4,020.1,9.1,0000.0,0003.65,0001.04,0000.53
2023-12-02 22:25:00,SystemResetWarning,0820.8,5.01,000.00,019.0,018.2,000.0,027.4,020.1,9.0,0000.0,0003.31,0001.02,0000.52
2023-12-02 22:26:00,SystemResetWarning,0820.8,5.01,000.00,019.0,018.2,000.0,027.3,020.1,9.1,0000.0,0002.88,0000.91,0000.52
2023-12-02 22:27:00,SystemResetWarning,0820.8,5.00,000.00,019.0,018.2,000.0,027.3,020.2,9.2,0000.0,0002.18,0000.86,0000.51
2023-12-02 22:28:00,SystemResetWarning,0820.8,5.00,000.00,019.0,018.2,000.0,027.3,020.2,9.2,0000.0,0001.80,0000.85,0000.51
2023-12-02 22:29:00,SystemResetWarning,0820.6,4.99,000.00,019.0,018.2,000.0,027.3,020.1,9.3,0000.0,0001.71,0000.83,0000.51
2023-12-02 22:30:00,SystemResetWarning,0820.6,5.00,000.00,019.0,018.2,000.0,027.3,020.1,9.0,0000.0,0002.35,0000.79,0000.51
2023-12-02 22:31:00,SystemResetWarning,0820.6,4.99,000.00,019.0,018.2,000.0,027.3,020.1,9.0,0000.0,0003.16,0000.75,0000.50
2023-12-02 22:32:00,SystemResetWarning,0820.7,5.00,000.00,019.0,018.2,000.0,027.3,020.1,9.0,0000.0,0003.43,0000.76,0000.50
2023-12-02 22:33:00,SystemResetWarning,0820.8,5.00,000.00,019.0,018.1,000.0,027.3,020.1,9.1,0000.0,0003.55,0000.76,0000.50
2023-12-02 22:34:00,SystemResetWarning,0820.7,5.00,000.00,019.0,018.1,000.0,027.3,020.1,9.1,0000.0,0003.50,0000.76,0000.49
2023-12-02 22:35:00,SystemResetWarning,0820.7,5.00,000.00,019.0,018.1,000.0,027.3,020.1,9.2,0000.0,0003.25,0000.71,0000.48
2023-12-02 22:36:00,SystemResetWarning,0820.7,5.00,000.00,019.0,018.1,000.0,027.3,020.1,9.3,0000.0,0003.20,0000.67,0000.47
2023-12-02 22:37:00,SystemResetWarning,0820.7,5.00,000.00,019.0,018.1,000.0,027.3,020.1,9.3,0000.0,0003.19,0000.67,0000.47
2023-12-02 22:38:00,SystemResetWarning,0820.7,5.00,000.00,019.0,018.1,000.0,027.3,020.1,9.4,0000.0,0003.18,0000.67,0000.47
2023-12-02 22:39:00,SystemResetWarning,0820.7,5.01,000.00,019.0,018.1,000.0,027.3,020.1,9.6,0000.0,0003.18,0000.65,0000.46
2023-12-02 22:40:00,SystemResetWarning,0820.7,5.01,000.00,018.9,018.1,000.0,027.3,020.1,9.5,0000.0,0003.30,0000.68,0000.45
2023-12-02 22:41:00,SystemResetWarning,0820.6,5.00,000.00,019.0,018.1,000.0,027.3,020.1,9.3,0000.0,0003.00,0000.72,0000.45
2023-12-02 22:42:00,SystemResetWarning,0820.6,5.00,000.00,019.0,018.1,000.0,027.3,020.1,9.3,0000.0,0002.07,0000.76,0000.45
2023-12-02 22:43:00,SystemResetWarning,0820.7,5.00,000.00,019.0,018.2,000.0,027.3,020.1,9.3,0000.0,0001.93,0000.78,0000.45
2023-12-02 22:44:00,SystemResetWarning,0820.8,5.00,000.00,019.0,018.2,000.0,027.3,020.1,9.3,0000.0,0001.78,0000.77,0000.45
2023-12-02 22:45:00,SystemResetWarning,0820.8,5.00,000.00,019.0,018.2,000.0,027.3,020.2,9.3,0000.0,0001.71,0000.75,0000.45
2023-12-02 22:46:00,SystemResetWarning,0820.8,5.00,000.00,019.0,018.2,000.0,027.3,020.2,9.3,0000.0,0001.63,0000.75,0000.46
2023-12-02 22:47:00,SystemResetWarning,0820.8,5.00,000.00,019.0,018.2,000.0,027.3,020.2,9.6,0000.0,0002.24,0000.78,0000.47
2023-12-02 22:48:00,SystemResetWarning,0820.8,5.00,000.00,019.0,018.2,000.0,027.3,020.1,9.2,0000.0,0002.95,0000.81,0000.48
2023-12-02 22:49:00,SystemResetWarning,0820.8,4.99,000.00,019.0,018.2,000.0,027.3,020.1,9.2,0000.0,0003.06,0000.81,0000.48
2023-12-02 22:50:00,SystemResetWarning,0820.7,4.99,000.00,019.0,018.2,000.0,027.3,020.2,9.4,0000.0,0003.17,0000.83,0000.47
2023-12-02 22:51:00,SystemResetWarning,0820.7,5.00,000.00,019.0,018.2,000.0,027.3,020.2,9.5,0000.0,0003.11,0000.81,0000.47
2023-12-02 22:52:00,SystemResetWarning,0820.6,5.01,000.00,019.0,018.2,000.0,027.3,020.1,9.4,0000.0,0003.10,0000.79,0000.47
2023-12-02 22:53:00,SystemResetWarning,0820.4,5.00,000.00,019.0,018.2,000.0,027.3,020.1,9.2,0000.0,0003.96,0000.78,0000.47
2023-12-02 22:54:00,SystemResetWarning,0820.5,5.01,000.00,019.0,018.2,000.0,027.3,020.1,9.1,0000.0,0004.25,0000.76,0000.47
2023-12-02 22:55:00,SystemResetWarning,0820.6,5.00,000.00,019.0,018.1,000.0,027.3,020.0,8.9,0000.0,0004.56,0000.73,0000.46
2023-12-02 22:56:00,SystemResetWarning,0820.6,4.99,000.00,019.0,018.1,000.0,027.3,020.0,9.0,0000.0,0005.07,0000.73,0000.46
2023-12-02 22:57:00,SystemResetWarning,0820.5,4.99,000.00,019.0,018.1,000.0,027.3,020.0,9.2,0000.0,0005.10,0000.74,0000.45
2023-12-02 22:58:00,SystemResetWarning,0820.8,5.01,000.00,018.9,018.1,000.0,027.3,020.0,9.3,0000.0,0004.88,0000.72,0000.44
2023-12-02 22:59:00,SystemResetWarning,0820.5,5.01,000.00,018.9,018.1,000.0,027.3,020.0,9.2,0000.0,0003.91,0000.72,0000.44
